Back to race calendar - >a href="#funrun">Fun Run results

Ulverston Christmas Pudding 10k, Cumbria

1st December 2013

Results courtesy of Steve Ashcroft on behalf of UKRoadRaces.info
(This is a sortable table - click column heading)
Filter (choose one only!)
Surname:
Cat: Club:
PosNumForenameSurnameCatClubTime
1325DavidFulfordMHoad Hill Harriers00:33:28
2324BobbyAtkinsonMV55Barrow & Furness Striders AC00:33:28
3260MarkWalshMEllenbrough AC00:34:26
4246PhilipLoweryMV50Lancaster & Morecambe00:35:24
5245KieranRowlandsMLancaster & Morecambe00:35:34
6281JamieLuxmooreMAmbleside AC00:35:55
7317RobertMoffattMHowgill Harriers00:36:34
8356WillRissMU20Barrow & Furness Striders AC00:36:43
9314RaymondJonesMV50Barrow & Furness Striders AC00:36:46
1097GrantJohnsonMWalney Windcheetehs00:36:50
11374KilJacksonM 00:37:08
12220ColinGrahamM 00:37:08
13241WilliamSissonM 00:37:30
14350RobWynneMV50Keswick AC00:37:33
15272AndrewMeskimmonMV45Dewsbury RR00:37:36
16261StuartAckerleyMEllenbrough AC00:37:42
17326ChrisHowieMV45Hoad Hill Harriers00:37:47
18187AlanMcKeeMV45West Cumbria Tri00:38:20
19247SueBecconsallFV50Bingley Harriers00:38:24
20330PippaMaddaysFV35Keswick AC00:38:28
21298GaryDoverMV50Hoad Hill Harriers00:38:29
22365KevinRobsonM 00:38:43
23168MikeWalshMV60Kendal AC00:39:10
24162KevinScottMV40 00:39:19
2543RobertReayM 00:39:22
26237AlanCoulstonM 00:39:25
27315SeanRobinsonMHowgill Harriers00:39:57
28163DannyBoufflerMBarrow & Furness Striders AC00:39:57
29243ChristopherSnellMKendal AC00:40:05
30259PeterSandfordMV55Dallam RR00:40:17
31110WillRevellMWalney Windcheetehs00:40:30
32305DuncanElgyMUlverston Tri00:40:34
33341MarkSimmondsMV50 00:40:38
34310JoeMurphyMParkside Panthers00:40:48
35244PaulFarrenMV50Bentham Beagles00:41:17
36188ShaunCavanaghMV45Cumberland AC00:41:21
37274TomSouthwardMHoad Hill Harriers00:41:24
38270ClaireWilsonFKendal AC00:41:30
39207MatthewBaconMAllithwaite + District00:41:41
4070DaveWilkinsonMV55Bowland Fell Runners00:41:47
41359RebeccaRennieF 00:41:50
42158JohnHalliwellMV50Manchester Harriers00:41:52
43295ThomasYatesMDallam RR00:41:57
44368CianNuttMHoad Hill Harriers00:41:59
45232HelenWoodleyFV35Allithwaite + District00:42:06
46148SteveHillierMWest Cheshire AC00:42:10
47265KathleenCrispFV40Barrow & Furness Striders AC00:42:10
48376NeilGordonMU20Hoad Hill Harriers00:42:23
49184CraigMarshMKeswick AC00:42:25
5036DGOvertonMV65Keswick AC00:42:28
51239AndrewQuinnMSpectrum Striders00:42:39
52103GaryWoodhouseMV40Parkside Panthers00:42:41
53307StevenBattyMV50Walney Windcheetehs00:42:48
54228PaulBaymanM 00:42:54
55321JamieYorkM 00:43:13
56278GlenTraversMV45Walney Windcheetehs00:43:21
57204StephenDavisM 00:43:31
58124JadeGilchristF 00:43:37
59347ErikHamptonMV40Hoad Hill Harriers00:43:39
60297NigelGarnettMV55Kendal AC00:43:44
61195IanJonesMV55Walney Windcheetehs00:43:47
62267AdrianNewnhamMV60Hoad Hill Harriers00:43:48
63316OliverForlizziMU20Hoad Hill Harriers00:43:54
64240Karen AnnMaggio-PoyntzFV40Walney Windcheetehs00:43:58
65176DarrenCassleyMV45 00:44:12
6658DavidWilkinsonMV50Lancaster & Morecambe00:44:22
67164SarahGrisdaleF 00:44:24
68351MarkRobinsonM 00:44:30
69377JamieBrysonMU20Hoad Hill Harriers00:44:40
70344SamMasonM 00:44:49
7156NigelAtkinsonMV45 00:44:51
72233KathAthertonFV35 00:44:53
73159PaulMcKennyMV50Ulverston Tri00:44:58
74312MatthewBeechamM 00:45:03
75262CurtisJacksonMU20Hoad Hill Harriers00:45:04
76258HayleyHodgsonFV45Keswick AC00:45:09
77331SymonFraserMU20 00:45:10
78311MargaretMurphyFParkside Panthers00:45:12
79369RobertMulgrewMV45Parkside Panthers00:45:24
80304PaulScribbansMV40 00:45:26
8135MarkLeverMWalney Windcheetehs00:45:27
82318JackPearaeMU20Hoad Hill Harriers00:45:29
83170JohnBamforthMV45 00:45:34
84296SophieSeddonFU20Barrow & Furness Striders AC00:45:51
85353EuanMcKinnonMV40Ulverston Tri00:45:58
86185OwenWestonM 00:46:08
87257SiobhanBrewerFV40Keswick AC00:46:10
88346MJewellMV55Black Combe Runners00:46:10
89255StephenBraithwaiteMV40Helm Hill Runners00:46:13
90275ColinBennMV60Black Combe Runners00:46:23
9191ChristineAdamsFV55Walney Windcheetehs00:46:25
92289StevenTysonMV45 00:46:28
93354AndrewGrittinsMV50Black Combe Runners00:46:31
94222JoshuaFlowerM 00:46:31
95269DavidSpencerMV75Barrow & Furness Striders AC00:46:44
96334PaulCaineMHoad Hill Harriers00:46:56
97288StevenWestrayMV40 00:47:02
98333KarenMacKinnonFV40Hoad Hill Harriers00:47:06
9973KeithHarrisMV40 00:47:07
100322DavidHuddlestonM 00:47:11
101173WilliamStaniardMV45Manchester Harriers00:47:16
102301PaulSewellMV65Dallam RR00:47:18
103313KatieSavageFBarrow & Furness Striders AC00:47:18
10466MatthewVinerM 00:47:20
105156TerryMorrisMV45Bentham Beagles00:47:20
106217NigelRawlingsMV55Manchester Harriers00:47:41
107235SteveMcCallMV50Manchester Harriers00:47:46
108268LisMuldoonFV35 00:47:47
10944GregoryLambertMV60Lancaster & Morecambe00:47:50
110213KevKendalMV40Howgill Harriers00:47:57
111345EileenPunF 00:47:57
112277KerrynaTraversFV40Parkside Panthers00:47:59
113370KarenOldhamFV45Parkside Panthers00:48:00
11465MattGrovesM 00:48:03
11575NatashaPooleFV40 00:48:09
116375MatthewPearyM 00:48:16
117208CarolineMuhamadFV40 00:48:25
11871SonjaFosterFV40Parkside Panthers00:48:28
119238VickiHindleFV35Bentham Beagles00:48:31
120179PeterIonMV70Kendal AC00:48:32
121266PeterJudgeMV45 00:48:45
122329MichaelHallMV45 00:48:49
123214BiancaDyerFV40Kendal tri00:48:58
124177RobSmithMV60Bentham Beagles00:49:11
125183LouiseWinterFV35Newmark AC00:49:16
12651DavePiperMTrentham RC00:49:18
12769EmmaGrahamFV35St Bees Triers00:49:20
12857CaroleWilkinsonFV50Lancaster & Morecambe00:49:23
129225MattAtkinsonMKendal tri00:49:26
130200MarkSpeddingMUlverston Tri00:49:30
131373AnnetteChallinorFV35Hoad Hill Harriers00:49:30
132139GraemeParkMV40 00:49:38
133117PaulKellyMV45 00:50:00
13485JeffMcCullyMV45Walney Windcheetehs00:50:03
135349JohnHodgsonMV65Dallam RR00:50:13
13638SimonRichardsonMV40 00:50:19
137190ZoeMarshF 00:50:21
138284ReurenLindsayMU16Air Cadets00:50:23
139165GarethJohnstoneMV40 00:50:26
140182JamesCooperM 00:50:29
14177JohnGreenwoodMV55Walney Windcheetehs00:50:33
142371HelenMoffattFV45 00:50:33
143140KateMorrisFBentham Beagles00:50:35
144226RebeccaAtkinsonFHelm Hill Runners00:50:35
145169LindsayHarrodFV45Helm Hill Runners00:50:40
146210GemmaWaterworthFKeswick AC00:50:40
147122YvonneRoseFV40 00:50:50
148282ConnerRavenMWalney Windcheetehs00:50:52
14987DianeStretchFWalney Windcheetehs00:50:52
150180MichelleLarkinFParkside Panthers00:50:54
151320JaneLaycockFV65Ambleside AC00:51:00
152116SimonBroomfieldMV40 00:51:01
153234ColinMageeMV45 00:51:05
154128JackWorthingtonM 00:51:05
155146WendySherringtonFV50 00:51:07
156335EmmaThompsonF 00:51:07
157206SharonBullockFV35Kendal AC00:51:18
158132HelenaLewisFV45Lancaster & Morecambe00:51:18
159283SteveWoodMV55Barrow & Furness Striders AC00:51:20
160211CathrineGrisdaleFV55Parkside Panthers00:51:35
161299MelissaGreavesFParkside Panthers00:51:35
162293HowardGravesMV65 00:51:42
163249JoolsFarrowFV40Hoad Hill Harriers00:51:46
16478SuzanneBoyleFV40Walney Windcheetehs00:52:07
165194DonnaSpeirsFV45Walney Windcheetehs00:52:09
166276DanielChapmanM 00:52:20
167120PhilipEverettM 00:52:41
168342RossCollingsM 00:52:48
169199AlastairBramwellMV45 00:52:49
170106SarahCassidyF 00:52:50
17190ClaireNeedhamFWalney Windcheetehs00:52:51
172149AnnStempFV45 00:52:51
173161PaulCamptonMV70 00:52:57
174328EstherSmithMHoad Hill Harriers00:53:05
175203JeremyHiscockM 00:53:05
176253JuliaJacksonFV35 00:53:06
177332MikeFawcettMV60Hoad Hill Harriers00:53:06
178147MarieSmythF 00:53:08
179340AlanWrightM 00:53:12
180294RobHoustonM 00:53:12
181264NigelHutchinsonMV55 00:53:17
182229MichaelKeeleyMV60Manchester Harriers00:53:22
183352TracyPotterF 00:53:28
184175GaryVernonMV45Fetcheveryone RC00:53:36
185254PeterJacksonMV60 00:53:40
18629GayEastoeFV60Alnwick Harriers00:53:42
18728RichardEastoeMV55Alnwick Harriers00:53:42
188144JessicaWallaceFU20 00:53:45
189218HelenSugarsFV35Hoad Hill Harriers00:53:46
190186DaveRawlinsonM 00:53:57
191109ClaireHaughianFWalney Windcheetehs00:54:01
192285RogerLindsayMV45Barrow Central Wheelers00:54:17
19331BuckLindsayMV50Cumberland Fell Runners00:54:21
194167KeithCarmanMV45Lancaster & Morecambe00:54:24
195292DianeArmstrongFV35Bentham Beagles00:54:32
196343AshleighAtkinsonF 00:54:33
197290EdwardTysonMV70 00:54:33
198242TristanReidM 00:54:45
199319BarrieLaycockMV70Ambleside AC00:54:47
20086ValFlemingFV55Walney Windcheetehs00:54:56
201251PhilOwenMV45Elvet Striders00:55:00
202271LindaRaynerFV55Dewsbury RR00:55:14
203138SadieWoodF 00:55:20
204141StephanieSharpFV45 00:55:21
205192SarahLawleyFV35 00:55:24
206215LauraJonesF 00:55:24
207145VickyArmstrongFV45 00:55:32
208367KalyaniNuttFHoad Hill Harriers00:55:38
209337RachelBradeF 00:55:48
21092SharonTaylorFV45Walney Windcheetehs00:55:54
21181LouisEllisMV35Walney Windcheetehs00:55:54
212280ChristopherBellMV45 00:55:54
213100DarranCurtisMV40Walney Windcheetehs00:55:55
21460JaneWoodleyFV65 00:56:23
215355RoyBrownMV40 00:56:29
216358StephenLeverM 00:56:30
217172JohnCassellsMV65Stowmarket Striders00:56:48
218230AllisonMcEwanFV35 00:56:50
219166AnneCarmanFV55Lancaster WRG00:57:01
220135KarenWallbankFV45 00:57:05
221198AnthonyOrrMV50 00:57:15
22279VanessaHillF 00:57:34
223336CarleThompsonFV35Ulverston Tri00:57:38
224191KarenCavanaghFV45Cumberland AC00:57:40
225357JustinBatesMV40Walney Windcheetehs00:57:49
22652NeilKnightMV40 00:57:49
227143EmilyCrossleyFU20 00:57:56
22872KarenBellFV40Walney Windcheetehs00:57:56
229364EmmaTaylorFLeg it00:58:34
230286RGWilcockMV60Walney Windcheetehs00:58:45
231308TonyBradyMV65Manchester Harriers00:58:49
232142LesleyNelsonFV40 00:58:59
233250KarlFurseyMV40Black Combe Runners00:59:21
234133DeborahYearnshireFV35 00:59:23
235273AnnButcherFV65Bentham Beagles00:59:28
236130MichelleEntwistleFV50Lancaster WRG00:59:29
237113KatieDixonFGB Bootcamps00:59:30
238189AngelaStevensFV40 00:59:35
23930JohnHollandMV55 00:59:35
240212RachaelKnowlesFV40 00:59:37
24137TrevorGrundyMV70 00:59:41
242231RachelMeaseFV45 00:59:41
243348TrinaGilchristFV45 00:59:47
244112KimberleyHillF 00:59:50
245300JohnMcKnightMV40Parkside Panthers01:00:02
246227AimeeGoodingsFParkside Panthers01:00:08
247216StephenWildMV45 01:00:19
248303RebeccaConnollyFV40 01:00:20
249102AliceWhiteFParkside Panthers01:00:22
25095JoanneBarnardFV40Walney Windcheetehs01:00:33
251309StephenNewbyMV45Duddon Dragons01:00:39
25299LindaVickersFWalney Windcheetehs01:00:44
253154ClaireWelburnFV35 01:00:49
254153MarkWalkerMV40Allithwaite + District01:00:49
255323PennyMoretonMV50Hoad Hill Harriers01:00:59
256171JoannaCassellsFV55Stowmarket Striders01:01:11
257256JohnHornbyMV65 01:01:20
258197KarenDentFV40 01:01:24
259155LyndaMorrisFV45Bentham Beagles01:01:25
26046GarethTaylrM 01:01:29
261111DanielCannM 01:01:29
262361SallyMcAlindenF 01:01:41
26350JaneLenzaFV55Dumfries Harriers01:01:45
26496AlisonSheildsFWalney Windcheetehs01:01:53
265327BarryChorleyMV40Ulverston Tri01:01:59
266372RosLeadbeatterMV50 01:02:38
267127KerryMcKennaFV35 01:02:40
268108NicolaMcMahonFV35 01:02:40
269121ClaireSollowayFV35 01:02:40
2703LynnTrussellFV55 01:02:44
271291ZoeMcDonaldFV40Bentham Beagles01:02:45
272363EmmaHigginsFLeg it01:02:45
273366NatalieWarwichF 01:02:56
27448EvelynElkingtonFV75Lancaster & Morecambe01:02:58
275224MichelleShawFParkside Panthers01:02:58
27649BernardElkingtonMV75Red Rose Road Runners01:02:58
27776ClaireGreenwoodFV55Walney Windcheetehs01:03:36
278302DavidFarishMV55Parkside Panthers01:04:07
27994MarieSullivanFV40Walney Windcheetehs01:04:22
28067TomCarswellM 01:04:26
28133AlisonDoddF 01:04:26
282150KarenRobinsonFV50 01:04:47
28361RogerHartleyMV65Manchester Harriers01:05:25
284126PaulaBrownFV45 01:05:36
28562MarkGunnerM 01:05:37
286193PatrciaDuffinFV35 01:05:43
287236ConnieBainbridgeFV45 01:05:43
288104KellyTaylorFWalney Windcheetehs01:05:50
289118KarlieShawcrossFWalney Windcheetehs01:05:50
290248GillianThompsonFV70Barrow & Furness Striders AC01:06:48
291279SusieBarstowFV50 01:07:26
292306EmmaTuiameFDuddon Dragons01:07:32
29389MichlleMcAveeneyFV45Walney Windcheetehs01:07:32
29454KirstyTysonFV35 01:07:58
295287JackieWilcockFV40Walney Windcheetehs01:07:59
29655KetchellGillF 01:08:08
297107JoHillenFV45Walney Windcheetehs01:09:20
298129JacquiSandbachFV50Lancaster WRG01:09:58
299131RuthHaughianFV55Walney Windcheetehs01:10:19
300125DavidBeeversMV55 01:11:00
30180DebbieAbnettFV35Walney Windcheetehs01:11:27
302263MichaelaNicholsonFV45Walney Windcheetehs01:12:12
303252RobBerryMV75Langdale RC01:13:23
30488LizzieKershawFV50Walney Windcheetehs01:14:47
30584ClaireO'HaraFV40Walney Windcheetehs01:16:37
306209ValerieSimmFV50 01:18:43
307196MHAbbottFV65 01:18:43
30883LauraJones-BarnesFWalney Windcheetehs01:18:55
30982JuneEllisFV60Walney Windcheetehs01:18:59
31098KimberleyEcclesFWalney Windcheetehs01:20:10
311123ImeldaHattonFV45 01:25:21
312105SamanthaKnottFWalney Windcheetehs01:37:20

Fun Run
PosNumForenameSurnameAgeClubTime
1139JamieGittins15Broughton Runners5.55
291LukeTurner14Hoad Hill Harriers5.55
3128JakeCooper12Barrow Striders5.57
488JackTurner12Hoad Hill Harriers6.32
593ConnorO'Hara11Hoad Hill Harriers6.33
696AbigailHowie14Hoad Hill Harriers6.36
7125HarveyCooper10Barrow Striders6.35
885KeenanWright14Hoad Hill Harriers6.39
9140OlesiaWinder8U/A6.42
10129MeishaMackinnon14Hoad Hill Harriers6.47
1173Kathryn12Walney Wind Cheaters7.40
1297CoreyBacon11Kendal7.42
13131OliverWilson12U/A7.53
1487HelenTurner10Hoad Hill Harriers7.53
15130SebWilson12U/A7.56
16137LouieGraham9U/A8.23
1794LukeSimmonds7U/A8.26
1895EllieSimmonds10U/A8.40
19138RoxamaGittins9Broughton Runners8.46
20142OliverWhalley8U/A9.00
21134LukeBrodie13U/A9.06
22133JakeBrodie8U/A9.06
23141CharlieWhalley5U/A9.09
2486KathrynHouston7U/A9.20
25136NiaAtkins10U/A9.27
26135IonaO'Reilly10U/A9.32
27116ElliotYork6U/A9.57
2898ShaneKelly5U/A10.21
29107RioYork5U/A10.24
Back to year index - Top of page